Regional Weather Roundup
Issued by NWS

Home | Current Version | Previous Version | Text Only | Print | Product List | Glossary On
Versions: 1 2 3 4 5 6 7 8 9 10 11 12 13 14 15 16 17 18 19 20 21 22 23 24 25 26 27 28 29 30 31 32 33 34 35 36 37 38 39 40 41 42 43 44 45 46 47 48 49 50
000
ASUS43 KLMK 212210
RWRKY
KENTUCKY REGIONAL WEATHER ROUNDUP
NATIONAL WEATHER SERVICE LOUISVILLE KY
500 PM EST WED FEB 21 2018

NOTE "FAIR" INDICATES FEW OR NO CLOUDS BELOW 12,000 FEET
WITH NO SIGNIFICANT WEATHER AND/OR OBSTRUCTIONS TO VISIBILITY.

KYZ001>023-026-027-061>063-070>075-212300-
WESTERN AND SOUTH CENTRAL KENTUCKY

CITY           SKY/WX    TMP DP  RH WIND       PRES   REMARKS
PADUCAH        LGT RAIN  40  36  86 N12       30.45R WCI  33
HENDERSON      LGT RAIN  39  37  93 N8        30.46R WCI  34
OWENSBORO      RAIN      44  43  96 NW13      30.44R
HOPKINSVILLE   LGT RAIN  43  43  99 N10       30.37S
BOWLING GREEN  CLOUDY    50  49  96 N5        30.35F
GLASGOW        RAIN     N/A N/A N/A N9        30.35R
$$

KYZ024-025-028>034-038-045-046-053-212300-
NORTH CENTRAL KENTUCKY

CITY           SKY/WX    TMP DP  RH WIND       PRES   REMARKS
LOUISVILLE/SDF LGT RAIN  49  46  90 N7        30.42R
LOUISVILLE/LOU LGT RAIN  48  47  96 N8        30.42R FOG
FORT KNOX      LGT RAIN  47  47  99 N8        30.40R
$$

KYZ035>037-039>044-047>052-055>060-089>105-212300-
NORTHEAST KENTUCKY

CITY           SKY/WX    TMP DP  RH WIND       PRES   REMARKS
LEXINGTON      LGT RAIN  53  51  93 N9        30.37F
COVINGTON      LGT RAIN  46  45  96 N13       30.41R
FRANKFORT      LGT RAIN  51  47  86 NW8       30.39R FOG
$$

KYZ054-064>069-076>088-106>120-212300-
SOUTHEAST KENTUCKY

CITY           SKY/WX    TMP DP  RH WIND       PRES   REMARKS
JACKSON        CLOUDY    61  59  93 NE3       30.34S
LONDON         CLOUDY    62  59  90 NE7       30.31F
SOMERSET       CLOUDY    63  52  67 MISG      30.33R
MIDDLESBORO    FAIR      76  60  57 S8        30.29S
MONTICELLO     NOT AVBL
$$




USA.gov is the U.S. government's official web portal to all federal, state and local government web resources and services.